Location: Newark
(50.4348°N, 30.5552°E)
Time: 22:15:48
(UTC+00:00)

Vanguard 2 Rocket - Visible Passes

Search period start: 19 January 2020 00:00
Search period end: 29 January 2020 00:00
Orbit: 554 x 3326 km, 32.9° (Epoch: 18 January)

Date Brightness Start Highest point End Pass type
(mag) Time Alt. Az. Time Alt. Az. Time Alt. Az.
19 Jan 9.5 04:49:22 10° SSW 04:53:55 18° SSE 05:00:07 10° ESE visible
20 Jan 9.6 03:52:47 10° SSE 03:54:55 12° SE 03:57:23 10° SE visible
21 Jan 9.3 05:02:42 10° SSW 05:07:20 20° SSE 05:13:50 10° ESE visible
22 Jan 9.3 04:05:13 10° S 04:08:15 14° SSE 04:12:01 10° SE visible
24 Jan 9.1 04:18:28 10° SSW 04:21:45 15° SSE 04:25:54 10° SE visible
25 Jan 9.1 03:21:52 10° SSE 03:22:46 10° SSE 03:23:43 10° SSE visible
26 Jan 9.0 04:32:13 10° SSW 04:35:22 15° S 04:39:20 10° SE visible
27 Jan 8.9 03:34:40 10° S 03:36:19 11° SSE 03:38:09 10° SE visible
28 Jan 9.0 04:46:26 10° SSW 04:49:04 13° S 04:52:14 10° SSE visible
